Погода в Сасове

Россия / Рязанская область     54°20′59″N   41°55′26″E
темп.,
°C
ветер,
м/с
пор.,
м/с
влажн.,
%
обл.,
%
осадки,
мм/ч
давл.,
гПа
погр.,
м
1 августа, вс
вс100:00+19зюз227395 0.0 101022
03:00+18зюз227392 0.0 101129
06:00+19з1270100 0.0 101249
09:00+24зюз2347100 0.0 1012643
12:00+28з3434100 0.0 10121607
15:00+29з3431100 0.0 10121933
18:00+29з013954 0.0 1011503
21:00+22юв3553100 0.0 101168
2 августа, пн
пн200:00+21ююв41254100 0.0 1011207
03:00+20ю4106262 0.0 1011163
06:00+21ююз49621 0.0 1012211
09:00+28ююз564111 0.0 1011534
12:00+33ююз57279 0.0 10103194
15:00+34ююз572367 0.0 10083774
18:00+32зсз34353 0.0 1007255
21:00+24юв47635 0.0 1007103
3 августа, вт
вт300:00+23ююв41353100 0.0 1006286
03:00+21з347075 0.1 100798
06:00+21юз387769 0.1 1007245
09:00+26юз6955100 0.1 10071057
12:00+25зюз68604 0.1 1008851
15:00+28зюз68465 0.1 10071710
18:00+25зсз676089 0.3 1008725
21:00+19зсз3585100 4.5 1010131
4 августа, ср
ср400:00+17зсз3693100 0.2 1011134
03:00+15зсз36955 0.2 1012120
06:00+16зсз36910 0.0 1013188
09:00+21зсз35600 0.0 1014874
12:00+25сз45399 0.0 10142200
15:00+26зсз543389 0.0 10142520
18:00+24сз464251 0.0 1015799
21:00+21сз235474 0.0 101657
5 августа, чт
чт500:00+18всв1159100 0.0 101611
03:00+19св2260100 0.0 101726
06:00+18св226338 0.0 101766
09:00+23ссв004714 0.0 1018779
12:00+26ссз434086 0.0 10172371
15:00+20вюв3465100 0.3 1018256
18:00+21юв335624 0.0 1018346
21:00+18в2269100 0.0 101728